TimeCDT,TemperatureF,Dew PointF,Humidity,Sea Level PressureIn,VisibilityMPH,Wind Direction,Wind SpeedMPH,Gust SpeedMPH,PrecipitationIn,Events,Conditions,WindDirDegrees,DateUTC
12:53 AM,32.0,24.1,73,29.98,10.0,SSE,4.6,-,N/A,,Overcast,150,2013-04-14 05:53:00
1:53 AM,32.0,23.0,69,29.97,10.0,East,6.9,-,N/A,,Overcast,90,2013-04-14 06:53:00
2:53 AM,32.0,23.0,69,29.93,10.0,East,5.8,-,N/A,,Overcast,100,2013-04-14 07:53:00
3:53 AM,32.0,21.9,66,29.94,10.0,ESE,8.1,-,N/A,,Overcast,120,2013-04-14 08:53:00
4:53 AM,32.0,21.9,66,29.92,9.0,East,10.4,-,0.00,Snow,Light Snow,90,2013-04-14 09:53:00
5:34 AM,30.2,23.0,75,29.91,2.5,ESE,10.4,-,0.00,Snow,Light Snow,120,2013-04-14 10:34:00
5:53 AM,30.9,24.1,76,29.92,6.0,East,11.5,-,0.00,Snow,Light Snow,100,2013-04-14 10:53:00
6:53 AM,30.0,24.1,79,29.90,8.0,East,13.8,-,0.02,Snow,Light Snow,90,2013-04-14 11:53:00
7:53 AM,30.9,24.1,76,29.90,10.0,East,5.8,-,0.00,,Overcast,80,2013-04-14 12:53:00
8:53 AM,32.0,21.9,66,29.85,5.0,East,13.8,23.0,0.00,Snow,Light Snow,90,2013-04-14 13:53:00
9:53 AM,32.0,25.0,75,29.81,5.0,East,13.8,-,0.00,Snow,Light Snow,100,2013-04-14 14:53:00
10:41 AM,32.0,26.6,80,29.77,1.8,East,17.3,21.9,0.00,Snow,Light Snow,90,2013-04-14 15:41:00
10:48 AM,32.0,26.6,80,29.77,3.0,East,9.2,23.0,0.00,Snow,Light Snow,100,2013-04-14 15:48:00
10:53 AM,32.0,25.0,75,29.78,6.0,East,11.5,23.0,0.00,Snow,Light Snow,100,2013-04-14 15:53:00
11:31 AM,32.0,26.6,80,29.75,4.0,ESE,15.0,26.5,0.00,Snow,Light Snow,110,2013-04-14 16:31:00
11:53 AM,32.0,27.0,82,29.78,3.0,ESE,13.8,24.2,0.01,Snow,Light Snow,120,2013-04-14 16:53:00
11:58 AM,32.0,26.6,80,29.76,1.8,ESE,17.3,23.0,0.00,Snow,Light Snow,110,2013-04-14 16:58:00
12:09 PM,32.0,28.4,87,29.75,1.2,East,12.7,20.7,0.00,Snow,Light Snow,100,2013-04-14 17:09:00
12:20 PM,33.8,28.4,81,29.74,2.0,East,12.7,20.7,0.00,Snow,Light Snow,100,2013-04-14 17:20:00
12:36 PM,33.8,28.4,81,29.74,4.0,East,12.7,21.9,0.01,Snow,Light Snow,90,2013-04-14 17:36:00
12:53 PM,33.1,28.0,82,29.74,5.0,East,12.7,21.9,0.01,Rain,Light Rain,90,2013-04-14 17:53:00
1:53 PM,33.1,28.9,85,29.69,5.0,East,17.3,28.8,0.03,Rain,Light Rain,100,2013-04-14 18:53:00
2:53 PM,33.8,28.4,81,29.66,10.0,East,15.0,26.5,N/A,Rain,Light Rain,100,2013-04-14 19:53:00
3:20 PM,33.8,28.4,81,29.64,2.0,East,15.0,20.7,0.00,Rain,Light Rain,90,2013-04-14 20:20:00
3:40 PM,33.8,28.4,81,29.63,4.0,East,17.3,24.2,0.00,Rain,Light Rain,100,2013-04-14 20:40:00
3:53 PM,33.1,28.9,85,29.63,3.0,East,18.4,28.8,0.00,Rain,Light Rain,90,2013-04-14 20:53:00
4:01 PM,33.8,28.4,81,29.60,2.0,East,18.4,33.4,0.01,Rain,Rain,100,2013-04-14 21:01:00
4:16 PM,33.8,28.4,81,29.59,4.0,East,17.3,25.3,0.02,Rain,Light Rain,100,2013-04-14 21:16:00
4:53 PM,34.0,30.0,85,29.60,2.0,East,15.0,27.6,0.05,Rain,Light Rain,100,2013-04-14 21:53:00
5:22 PM,33.8,30.2,87,29.56,7.0,East,12.7,24.2,0.01,Rain,Light Rain,100,2013-04-14 22:22:00
5:53 PM,34.0,30.0,85,29.56,4.0,East,16.1,23.0,0.01,Rain,Light Rain,100,2013-04-14 22:53:00
6:53 PM,34.0,30.9,89,29.56,6.0,East,10.4,-,0.04,Rain,Light Rain,100,2013-04-14 23:53:00
7:53 PM,35.1,30.9,85,29.53,10.0,ESE,15.0,-,0.02,,Overcast,110,2013-04-15 00:53:00
8:53 PM,35.1,30.9,85,29.54,10.0,SE,12.7,-,0.03,,Overcast,130,2013-04-15 01:53:00
9:53 PM,36.0,32.0,86,29.56,6.0,SE,12.7,-,0.00,Rain,Light Rain,130,2013-04-15 02:53:00
10:27 PM,35.6,33.8,93,29.54,9.0,SE,11.5,-,0.00,,Overcast,130,2013-04-15 03:27:00
10:53 PM,36.0,33.1,89,29.56,10.0,SSE,10.4,-,0.00,,Overcast,150,2013-04-15 03:53:00
11:23 PM,35.6,33.8,93,29.55,10.0,SSE,11.5,-,N/A,,Overcast,160,2013-04-15 04:23:00
11:42 PM,35.6,33.8,93,29.55,10.0,SSE,9.2,-,N/A,,Mostly Cloudy,150,2013-04-15 04:42:00
11:53 PM,36.0,34.0,93,29.56,10.0,South,6.9,-,N/A,,Scattered Clouds,170,2013-04-15 04:53:00